PTSMJ SNIO-SNIB

Flight info

Callsign PTSMJ
Flight time 1h 25m
Altitude 3500
Route DCT 112957S0384556W 115221S0390907W 120924S0394435W 121622S0400515W DCT
Aircraft C172/L-SDG/C

Departure

Time 2026-04-25 19:37
Airport Cipó Airport (SNIO)

Arrival

Time 2026-04-25 21:02
Airport Itaberaba Airport (SNIB)
Time Latitude Longitude Altitude Speed Heading
2026-04-25 19:14 -11.12384 -38.49355 747 ft 0 kts 108°
2026-04-25 19:29 -11.12385 -38.49340 747 ft 0 kts 80°
2026-04-25 19:30 -11.12385 -38.49339 747 ft 1 kts 87°
2026-04-25 19:30 -11.12380 -38.49324 746 ft 0 kts 45°
2026-04-25 19:32 -11.12361 -38.49311 746 ft 7 kts 27°
2026-04-25 19:32 -11.12352 -38.49307 746 ft 0 kts 23°
2026-04-25 19:34 -11.12321 -38.49302 746 ft 9 kts 338°
2026-04-25 19:35 -11.12289 -38.49340 745 ft 7 kts 15°
2026-04-25 19:35 -11.12292 -38.49317 744 ft 0 kts 118°
2026-04-25 19:35 -11.12331 -38.49222 745 ft 36 kts 110°
2026-04-25 19:36 -11.12483 -38.48870 787 ft 66 kts 111°
2026-04-25 19:36 -11.12540 -38.48357 912 ft 72 kts 104°
2026-04-25 19:36 -11.12543 -38.47830 1054 ft 76 kts 98°
2026-04-25 19:36 -11.12524 -38.47270 1125 ft 80 kts 94°
2026-04-25 19:37 -11.12467 -38.46729 1221 ft 79 kts 88°
2026-04-25 19:37 -11.12279 -38.46235 1490 ft 69 kts 64°
2026-04-25 19:37 -11.11731 -38.46181 1525 ft 95 kts 323°
2026-04-25 19:37 -11.11581 -38.46757 1664 ft 86 kts 249°
2026-04-25 19:38 -11.11689 -38.47391 1814 ft 96 kts 254°
2026-04-25 19:38 -11.11876 -38.48059 1957 ft 99 kts 227°
2026-04-25 19:38 -11.12385 -38.48506 2093 ft 98 kts 211°
2026-04-25 19:38 -11.12919 -38.48938 2232 ft 98 kts 210°
2026-04-25 19:39 -11.13472 -38.49365 2367 ft 98 kts 208°
2026-04-25 19:39 -11.14017 -38.49780 2487 ft 100 kts 211°
2026-04-25 19:39 -11.14590 -38.50210 2617 ft 102 kts 211°
2026-04-25 19:39 -11.15155 -38.50634 2734 ft 100 kts 210°
2026-04-25 19:40 -11.15719 -38.51055 2863 ft 101 kts 210°
2026-04-25 19:40 -11.16283 -38.51476 2983 ft 101 kts 211°
2026-04-25 19:40 -11.16853 -38.51900 3106 ft 101 kts 210°
2026-04-25 19:40 -11.17421 -38.52324 3228 ft 100 kts 210°
2026-04-25 19:41 -11.17985 -38.52743 3349 ft 101 kts 210°
2026-04-25 19:41 -11.18551 -38.53164 3464 ft 101 kts 208°
2026-04-25 19:41 -11.19143 -38.53604 3478 ft 109 kts 208°
2026-04-25 19:41 -11.19340 -38.53752 3499 ft 108 kts 208°
2026-04-25 19:42 -11.20336 -38.54496 3711 ft 103 kts 209°
2026-04-25 19:42 -11.20910 -38.54922 3802 ft 103 kts 209°
2026-04-25 19:42 -11.21498 -38.55358 3901 ft 105 kts 210°
2026-04-25 19:42 -11.22092 -38.55802 4000 ft 106 kts 210°
2026-04-25 19:43 -11.22693 -38.56249 4097 ft 108 kts 209°
2026-04-25 19:43 -11.23301 -38.56701 4197 ft 109 kts 211°
2026-04-25 19:43 -11.23907 -38.57155 4298 ft 108 kts 210°
2026-04-25 19:43 -11.24509 -38.57603 4395 ft 107 kts 209°
2026-04-25 19:44 -11.25115 -38.58053 4469 ft 111 kts 211°
2026-04-25 19:44 -11.25760 -38.58533 4477 ft 118 kts 210°
2026-04-25 19:44 -11.26430 -38.59035 4483 ft 120 kts 210°
2026-04-25 19:44 -11.27105 -38.59540 4481 ft 121 kts 210°
2026-04-25 19:45 -11.27784 -38.60046 4482 ft 122 kts 210°
2026-04-25 19:45 -11.28474 -38.60561 4483 ft 124 kts 211°
2026-04-25 19:45 -11.29164 -38.61077 4484 ft 121 kts 211°
2026-04-25 19:45 -11.29825 -38.61574 4478 ft 115 kts 211°
2026-04-25 19:46 -11.30465 -38.62048 4472 ft 116 kts 211°
2026-04-25 19:46 -11.31128 -38.62539 4474 ft 119 kts 211°
2026-04-25 19:46 -11.31790 -38.63035 4477 ft 118 kts 210°
2026-04-25 19:46 -11.32448 -38.63526 4468 ft 116 kts 211°
2026-04-25 19:47 -11.33091 -38.64004 4468 ft 114 kts 211°
2026-04-25 19:47 -11.33735 -38.64483 4477 ft 115 kts 211°
2026-04-25 19:47 -11.34384 -38.64967 4474 ft 116 kts 211°
2026-04-25 19:47 -11.35038 -38.65455 4478 ft 116 kts 211°
2026-04-25 19:48 -11.35686 -38.65938 4476 ft 115 kts 212°
2026-04-25 19:48 -11.36332 -38.66420 4477 ft 115 kts 210°
2026-04-25 19:48 -11.36977 -38.66900 4476 ft 115 kts 210°
2026-04-25 19:48 -11.37619 -38.67379 4474 ft 114 kts 211°
2026-04-25 19:49 -11.38255 -38.67854 4477 ft 113 kts 211°
2026-04-25 19:49 -11.38469 -38.68013 4477 ft 113 kts 211°
2026-04-25 19:49 -11.39528 -38.68801 4475 ft 115 kts 210°
2026-04-25 19:49 -11.40170 -38.69281 4474 ft 114 kts 210°
2026-04-25 19:50 -11.41449 -38.70234 4478 ft 115 kts 211°
2026-04-25 19:50 -11.42063 -38.70692 4480 ft 116 kts 210°
2026-04-25 19:50 -11.42718 -38.71181 4481 ft 116 kts 211°
2026-04-25 19:51 -11.43371 -38.71668 4483 ft 117 kts 211°
2026-04-25 19:51 -11.44025 -38.72156 4481 ft 116 kts 211°
2026-04-25 19:51 -11.44675 -38.72641 4483 ft 115 kts 211°
2026-04-25 19:51 -11.45321 -38.73124 4479 ft 115 kts 210°
2026-04-25 19:52 -11.45965 -38.73604 4481 ft 115 kts 209°
2026-04-25 19:52 -11.46609 -38.74084 4478 ft 114 kts 208°
2026-04-25 19:52 -11.47248 -38.74561 4478 ft 114 kts 210°
2026-04-25 19:52 -11.47882 -38.75033 4481 ft 113 kts 211°
2026-04-25 19:53 -11.48533 -38.75519 4485 ft 115 kts 210°
2026-04-25 19:53 -11.49169 -38.75994 4487 ft 115 kts 210°
2026-04-25 19:53 -11.49822 -38.76482 4485 ft 114 kts 211°
2026-04-25 19:53 -11.50405 -38.77051 4485 ft 117 kts 220°
2026-04-25 19:54 -11.50976 -38.77644 4486 ft 117 kts 220°
2026-04-25 19:54 -11.51549 -38.78236 4490 ft 118 kts 220°
2026-04-25 19:54 -11.51740 -38.78439 4491 ft 119 kts 226°
2026-04-25 19:55 -11.52131 -38.79485 4474 ft 121 kts 246°
2026-04-25 19:55 -11.52348 -38.80280 4553 ft 115 kts 237°
2026-04-25 19:55 -11.52995 -38.80725 4475 ft 115 kts 186°
2026-04-25 19:55 -11.53768 -38.80887 4496 ft 114 kts 197°
2026-04-25 19:56 -11.54431 -38.81345 4492 ft 117 kts 220°
2026-04-25 19:56 -11.55017 -38.81918 4486 ft 117 kts 220°
2026-04-25 19:56 -11.55599 -38.82499 4491 ft 118 kts 221°
2026-04-25 19:56 -11.56182 -38.83095 4488 ft 119 kts 222°
2026-04-25 19:57 -11.56765 -38.83694 4481 ft 118 kts 222°
2026-04-25 19:57 -11.57340 -38.84287 4479 ft 117 kts 222°
2026-04-25 19:57 -11.57914 -38.84879 4479 ft 118 kts 223°
2026-04-25 19:57 -11.58490 -38.85474 4481 ft 118 kts 221°
2026-04-25 19:58 -11.59076 -38.86062 4481 ft 118 kts 221°
2026-04-25 19:58 -11.59658 -38.86659 4478 ft 119 kts 222°
2026-04-25 19:58 -11.60242 -38.87264 4479 ft 120 kts 222°
2026-04-25 19:58 -11.60822 -38.87864 4480 ft 118 kts 221°
2026-04-25 19:59 -11.61398 -38.88459 4479 ft 117 kts 222°
2026-04-25 19:59 -11.61977 -38.89058 4477 ft 116 kts 221°
2026-04-25 19:59 -11.62534 -38.89634 4479 ft 115 kts 221°
2026-04-25 19:59 -11.63104 -38.90220 4483 ft 115 kts 222°
2026-04-25 20:00 -11.63659 -38.90792 4484 ft 114 kts 221°
2026-04-25 20:00 -11.64038 -38.91183 4482 ft 115 kts 220°
2026-04-25 20:00 -11.64782 -38.91952 4482 ft 115 kts 221°
2026-04-25 20:00 -11.65346 -38.92534 4483 ft 116 kts 221°
2026-04-25 20:01 -11.66478 -38.93707 4483 ft 115 kts 220°
2026-04-25 20:01 -11.67036 -38.94284 4482 ft 114 kts 221°
2026-04-25 20:01 -11.67603 -38.94870 4482 ft 116 kts 221°
2026-04-25 20:02 -11.68163 -38.95449 4484 ft 117 kts 221°
2026-04-25 20:02 -11.68740 -38.96047 4478 ft 116 kts 221°
2026-04-25 20:02 -11.69305 -38.96631 4480 ft 116 kts 221°
2026-04-25 20:02 -11.69870 -38.97219 4480 ft 116 kts 222°
2026-04-25 20:03 -11.70436 -38.97805 4484 ft 115 kts 221°
2026-04-25 20:03 -11.70997 -38.98385 4483 ft 115 kts 221°
2026-04-25 20:03 -11.71556 -38.98964 4486 ft 115 kts 221°
2026-04-25 20:03 -11.72120 -38.99545 4484 ft 116 kts 222°
2026-04-25 20:04 -11.72685 -39.00130 4486 ft 115 kts 221°
2026-04-25 20:04 -11.73245 -39.00708 4486 ft 114 kts 221°
2026-04-25 20:04 -11.73801 -39.01284 4488 ft 114 kts 221°
2026-04-25 20:04 -11.74361 -39.01864 4486 ft 115 kts 221°
2026-04-25 20:05 -11.74926 -39.02450 4484 ft 117 kts 222°
2026-04-25 20:05 -11.75497 -39.03042 4486 ft 116 kts 222°
2026-04-25 20:05 -11.76064 -39.03630 4483 ft 116 kts 221°
2026-04-25 20:05 -11.76635 -39.04220 4483 ft 117 kts 221°
2026-04-25 20:06 -11.77207 -39.04813 4486 ft 117 kts 222°
2026-04-25 20:06 -11.77777 -39.05404 4481 ft 116 kts 222°
2026-04-25 20:06 -11.78344 -39.05991 4486 ft 117 kts 222°
2026-04-25 20:06 -11.78917 -39.06585 4487 ft 117 kts 221°
2026-04-25 20:07 -11.79488 -39.07177 4488 ft 116 kts 222°
2026-04-25 20:07 -11.79882 -39.07894 4497 ft 120 kts 252°
2026-04-25 20:07 -11.80056 -39.08734 4497 ft 122 kts 258°
2026-04-25 20:07 -11.80197 -39.09594 4495 ft 123 kts 257°
2026-04-25 20:08 -11.80338 -39.10453 4494 ft 123 kts 257°
2026-04-25 20:08 -11.80443 -39.11317 4490 ft 123 kts 262°
2026-04-25 20:08 -11.80529 -39.12184 4488 ft 123 kts 261°
2026-04-25 20:08 -11.80612 -39.13055 4483 ft 123 kts 259°
2026-04-25 20:09 -11.80772 -39.13909 4482 ft 122 kts 251°
2026-04-25 20:09 -11.81043 -39.14723 4480 ft 121 kts 246°
2026-04-25 20:09 -11.81340 -39.15520 4478 ft 120 kts 246°
2026-04-25 20:09 -11.81641 -39.16306 4484 ft 119 kts 245°
2026-04-25 20:10 -11.81936 -39.17102 4482 ft 120 kts 246°
2026-04-25 20:10 -11.82223 -39.17913 4483 ft 120 kts 246°
2026-04-25 20:10 -11.82602 -39.18656 4489 ft 117 kts 236°
2026-04-25 20:10 -11.83001 -39.19381 4484 ft 118 kts 236°
2026-04-25 20:11 -11.83399 -39.20113 4479 ft 117 kts 236°
2026-04-25 20:11 -11.83799 -39.20841 4480 ft 117 kts 237°
2026-04-25 20:11 -11.84202 -39.21565 4483 ft 117 kts 236°
2026-04-25 20:11 -11.84602 -39.22294 4481 ft 118 kts 237°
2026-04-25 20:12 -11.84998 -39.23026 4486 ft 118 kts 237°
2026-04-25 20:12 -11.85402 -39.23755 4485 ft 118 kts 237°
2026-04-25 20:12 -11.85805 -39.24490 4484 ft 119 kts 237°
2026-04-25 20:12 -11.85941 -39.24738 4482 ft 119 kts 237°
2026-04-25 20:13 -11.86616 -39.25962 4484 ft 119 kts 237°
2026-04-25 20:13 -11.87015 -39.26708 4485 ft 120 kts 238°
2026-04-25 20:13 -11.87423 -39.27447 4482 ft 119 kts 237°
2026-04-25 20:13 -11.87836 -39.28178 4479 ft 118 kts 237°
2026-04-25 20:14 -11.88247 -39.28909 4482 ft 119 kts 237°
2026-04-25 20:14 -11.88655 -39.29648 4481 ft 120 kts 236°
2026-04-25 20:14 -11.89067 -39.30384 4480 ft 118 kts 237°
2026-04-25 20:14 -11.89479 -39.31104 4480 ft 117 kts 237°
2026-04-25 20:15 -11.89884 -39.31823 4484 ft 117 kts 237°
2026-04-25 20:15 -11.90291 -39.32548 4484 ft 118 kts 237°
2026-04-25 20:15 -11.90700 -39.33276 4485 ft 118 kts 237°
2026-04-25 20:15 -11.91105 -39.34006 4480 ft 118 kts 237°
2026-04-25 20:16 -11.91508 -39.34732 4481 ft 118 kts 237°
2026-04-25 20:16 -11.91912 -39.35462 4484 ft 118 kts 237°
2026-04-25 20:16 -11.92316 -39.36192 4478 ft 119 kts 237°
2026-04-25 20:16 -11.92726 -39.36926 4479 ft 119 kts 237°
2026-04-25 20:17 -11.93132 -39.37653 4481 ft 118 kts 237°
2026-04-25 20:17 -11.93541 -39.38378 4478 ft 118 kts 237°
2026-04-25 20:17 -11.93952 -39.39102 4480 ft 118 kts 237°
2026-04-25 20:17 -11.94358 -39.39829 4480 ft 118 kts 237°
2026-04-25 20:18 -11.94761 -39.40559 4481 ft 118 kts 237°
2026-04-25 20:18 -11.95162 -39.41286 4483 ft 115 kts 236°
2026-04-25 20:18 -11.95550 -39.42001 4480 ft 115 kts 236°
2026-04-25 20:18 -11.95942 -39.42723 4476 ft 117 kts 237°
2026-04-25 20:19 -11.96338 -39.43448 4479 ft 117 kts 237°
2026-04-25 20:19 -11.96736 -39.44178 4478 ft 118 kts 236°
2026-04-25 20:19 -11.97135 -39.44909 4476 ft 118 kts 237°
2026-04-25 20:19 -11.97541 -39.45636 4480 ft 117 kts 237°
2026-04-25 20:20 -11.97952 -39.46359 4478 ft 118 kts 236°
2026-04-25 20:20 -11.98367 -39.47089 4484 ft 119 kts 237°
2026-04-25 20:20 -11.98786 -39.47829 4485 ft 121 kts 237°
2026-04-25 20:20 -11.99204 -39.48572 4482 ft 120 kts 237°
2026-04-25 20:21 -11.99631 -39.49322 4483 ft 120 kts 237°
2026-04-25 20:21 -12.00054 -39.50062 4480 ft 121 kts 236°
2026-04-25 20:21 -12.00465 -39.50801 4481 ft 119 kts 237°
2026-04-25 20:21 -12.00879 -39.51530 4483 ft 119 kts 236°
2026-04-25 20:22 -12.01296 -39.52266 4482 ft 120 kts 237°
2026-04-25 20:22 -12.01430 -39.52506 4479 ft 120 kts 237°
2026-04-25 20:22 -12.02119 -39.53737 4483 ft 119 kts 237°
2026-04-25 20:22 -12.02531 -39.54468 4483 ft 118 kts 237°
2026-04-25 20:23 -12.02946 -39.55193 4482 ft 118 kts 237°
2026-04-25 20:23 -12.03365 -39.55922 4485 ft 120 kts 237°
2026-04-25 20:23 -12.03779 -39.56660 4479 ft 119 kts 237°
2026-04-25 20:23 -12.04189 -39.57388 4484 ft 118 kts 237°
2026-04-25 20:24 -12.04588 -39.58110 4478 ft 115 kts 237°
2026-04-25 20:24 -12.04991 -39.58819 4480 ft 116 kts 237°
2026-04-25 20:24 -12.05389 -39.59537 4477 ft 116 kts 237°
2026-04-25 20:24 -12.05788 -39.60252 4479 ft 117 kts 237°
2026-04-25 20:25 -12.06189 -39.60976 4479 ft 117 kts 237°
2026-04-25 20:25 -12.06585 -39.61705 4481 ft 117 kts 237°
2026-04-25 20:25 -12.06989 -39.62430 4477 ft 118 kts 237°
2026-04-25 20:25 -12.07391 -39.63155 4480 ft 118 kts 237°
2026-04-25 20:26 -12.07793 -39.63885 4478 ft 118 kts 236°
2026-04-25 20:26 -12.08196 -39.64622 4483 ft 119 kts 237°
2026-04-25 20:26 -12.08599 -39.65357 4480 ft 118 kts 237°
2026-04-25 20:26 -12.09001 -39.66083 4479 ft 117 kts 237°
2026-04-25 20:27 -12.09403 -39.66807 4480 ft 118 kts 237°
2026-04-25 20:27 -12.09804 -39.67531 4480 ft 116 kts 237°
2026-04-25 20:27 -12.10203 -39.68245 4478 ft 116 kts 236°
2026-04-25 20:27 -12.10605 -39.68975 4483 ft 119 kts 237°
2026-04-25 20:28 -12.11020 -39.69710 4479 ft 120 kts 236°
2026-04-25 20:28 -12.11442 -39.70450 4481 ft 121 kts 236°
2026-04-25 20:28 -12.11718 -39.70941 4484 ft 119 kts 238°
2026-04-25 20:28 -12.12277 -39.71916 4483 ft 117 kts 236°
2026-04-25 20:29 -12.12551 -39.72391 4481 ft 117 kts 237°
2026-04-25 20:29 -12.12951 -39.73102 4486 ft 115 kts 237°
2026-04-25 20:29 -12.13362 -39.73811 4485 ft 114 kts 237°
2026-04-25 20:29 -12.13765 -39.74502 4481 ft 115 kts 237°
2026-04-25 20:30 -12.14170 -39.75206 4484 ft 115 kts 237°
2026-04-25 20:30 -12.14582 -39.75924 4483 ft 115 kts 237°
2026-04-25 20:30 -12.14983 -39.76635 4480 ft 115 kts 237°
2026-04-25 20:30 -12.15384 -39.77337 4477 ft 116 kts 237°
2026-04-25 20:31 -12.15796 -39.78041 4479 ft 116 kts 236°
2026-04-25 20:31 -12.16209 -39.78765 4482 ft 116 kts 236°
2026-04-25 20:31 -12.16625 -39.79463 4471 ft 115 kts 225°
2026-04-25 20:31 -12.17255 -39.79932 4486 ft 113 kts 217°
2026-04-25 20:32 -12.17704 -39.80593 4499 ft 117 kts 246°
2026-04-25 20:32 -12.17996 -39.81378 4496 ft 119 kts 247°
2026-04-25 20:32 -12.18278 -39.82170 4491 ft 118 kts 247°
2026-04-25 20:32 -12.18549 -39.82958 4486 ft 117 kts 247°
2026-04-25 20:33 -12.18817 -39.83747 4483 ft 118 kts 248°
2026-04-25 20:33 -12.19084 -39.84546 4476 ft 117 kts 248°
2026-04-25 20:33 -12.19350 -39.85333 4474 ft 118 kts 248°
2026-04-25 20:33 -12.19529 -39.85860 4483 ft 119 kts 248°
2026-04-25 20:34 -12.19891 -39.86933 4482 ft 120 kts 249°
2026-04-25 20:34 -12.20161 -39.87743 4475 ft 121 kts 249°
2026-04-25 20:34 -12.20432 -39.88550 4481 ft 120 kts 248°
2026-04-25 20:34 -12.20702 -39.89355 4481 ft 120 kts 248°
2026-04-25 20:35 -12.20975 -39.90163 4482 ft 120 kts 249°
2026-04-25 20:35 -12.21247 -39.90972 4478 ft 121 kts 248°
2026-04-25 20:35 -12.21518 -39.91782 4479 ft 120 kts 249°
2026-04-25 20:35 -12.21791 -39.92587 4478 ft 120 kts 248°
2026-04-25 20:36 -12.22064 -39.93389 4479 ft 119 kts 248°
2026-04-25 20:36 -12.22335 -39.94192 4476 ft 120 kts 248°
2026-04-25 20:36 -12.22605 -39.94997 4477 ft 119 kts 248°
2026-04-25 20:36 -12.22875 -39.95797 4476 ft 119 kts 249°
2026-04-25 20:37 -12.23144 -39.96597 4476 ft 118 kts 249°
2026-04-25 20:37 -12.23410 -39.97385 4474 ft 118 kts 247°
2026-04-25 20:37 -12.23677 -39.98176 4480 ft 117 kts 249°
2026-04-25 20:37 -12.23942 -39.98961 4476 ft 117 kts 248°
2026-04-25 20:38 -12.24210 -39.99756 4475 ft 118 kts 250°
2026-04-25 20:38 -12.24478 -40.00553 4474 ft 118 kts 249°
2026-04-25 20:38 -12.24747 -40.01351 4482 ft 119 kts 249°
2026-04-25 20:38 -12.25015 -40.02152 4477 ft 119 kts 250°
2026-04-25 20:39 -12.25285 -40.02952 4477 ft 120 kts 249°
2026-04-25 20:39 -12.25553 -40.03754 4477 ft 119 kts 248°
2026-04-25 20:39 -12.25823 -40.04552 4480 ft 119 kts 249°
2026-04-25 20:39 -12.26001 -40.05081 4477 ft 119 kts 249°
2026-04-25 20:40 -12.26360 -40.06146 4482 ft 119 kts 249°
2026-04-25 20:40 -12.26629 -40.06947 4481 ft 118 kts 249°
2026-04-25 20:40 -12.26895 -40.07740 4474 ft 119 kts 248°
2026-04-25 20:40 -12.27176 -40.08543 4477 ft 119 kts 243°
2026-04-25 20:41 -12.27698 -40.09153 4477 ft 111 kts 214°
2026-04-25 20:41 -12.28311 -40.09634 4475 ft 112 kts 216°
2026-04-25 20:41 -12.28916 -40.10121 4478 ft 110 kts 216°
2026-04-25 20:41 -12.29520 -40.10606 4476 ft 112 kts 215°
2026-04-25 20:42 -12.30132 -40.11095 4479 ft 111 kts 214°
2026-04-25 20:42 -12.30746 -40.11582 4476 ft 112 kts 215°
2026-04-25 20:42 -12.31396 -40.12008 4468 ft 109 kts 191°
2026-04-25 20:42 -12.32109 -40.11877 4479 ft 105 kts 162°
2026-04-25 20:43 -12.32812 -40.11666 4481 ft 106 kts 164°
2026-04-25 20:43 -12.33530 -40.11448 4481 ft 107 kts 163°
2026-04-25 20:43 -12.34232 -40.11236 4482 ft 107 kts 162°
2026-04-25 20:43 -12.34945 -40.11022 4478 ft 106 kts 163°
2026-04-25 20:44 -12.35651 -40.10812 4475 ft 105 kts 163°
2026-04-25 20:44 -12.36359 -40.10603 4476 ft 104 kts 163°
2026-04-25 20:44 -12.37047 -40.10399 4480 ft 105 kts 164°
2026-04-25 20:44 -12.37765 -40.10187 4478 ft 106 kts 165°
2026-04-25 20:45 -12.38490 -40.10022 4440 ft 111 kts 172°
2026-04-25 20:45 -12.39287 -40.09997 4382 ft 114 kts 175°
2026-04-25 20:45 -12.40046 -40.10138 4418 ft 110 kts 193°
2026-04-25 20:45 -12.40770 -40.10150 4475 ft 103 kts 173°
2026-04-25 20:46 -12.41501 -40.10095 4477 ft 107 kts 174°
2026-04-25 20:46 -12.42248 -40.10037 4477 ft 108 kts 175°
2026-04-25 20:46 -12.42996 -40.09976 4476 ft 108 kts 174°
2026-04-25 20:46 -12.43755 -40.09912 4480 ft 111 kts 175°
2026-04-25 20:47 -12.44519 -40.09849 4477 ft 109 kts 175°
2026-04-25 20:47 -12.45256 -40.09795 4477 ft 100 kts 175°
2026-04-25 20:47 -12.45926 -40.09750 4381 ft 94 kts 174°
2026-04-25 20:47 -12.46555 -40.09713 4231 ft 88 kts 174°
2026-04-25 20:48 -12.47152 -40.09683 4083 ft 84 kts 174°
2026-04-25 20:48 -12.47719 -40.09656 3938 ft 80 kts 174°
2026-04-25 20:48 -12.48274 -40.09633 3797 ft 79 kts 173°
2026-04-25 20:48 -12.48811 -40.09614 3656 ft 76 kts 174°
2026-04-25 20:49 -12.49328 -40.09597 3518 ft 74 kts 173°
2026-04-25 20:49 -12.49846 -40.09587 3395 ft 75 kts 174°
2026-04-25 20:49 -12.50367 -40.09575 3277 ft 75 kts 174°
2026-04-25 20:49 -12.50892 -40.09565 3144 ft 76 kts 174°
2026-04-25 20:50 -12.51424 -40.09559 3019 ft 77 kts 174°
2026-04-25 20:50 -12.51953 -40.09554 2891 ft 75 kts 174°
2026-04-25 20:50 -12.52460 -40.09508 2758 ft 71 kts 160°
2026-04-25 20:50 -12.52937 -40.09386 2624 ft 70 kts 161°
2026-04-25 20:51 -12.53404 -40.09272 2492 ft 70 kts 160°
2026-04-25 20:51 -12.53911 -40.09146 2401 ft 80 kts 161°
2026-04-25 20:51 -12.54449 -40.08966 2294 ft 82 kts 143°
2026-04-25 20:51 -12.54896 -40.08602 2189 ft 82 kts 125°
2026-04-25 20:52 -12.55235 -40.08124 2088 ft 84 kts 125°
2026-04-25 20:52 -12.55473 -40.07792 2012 ft 87 kts 124°
2026-04-25 20:52 -12.55929 -40.07142 1952 ft 83 kts 124°
2026-04-25 20:52 -12.56265 -40.06664 1926 ft 82 kts 127°
2026-04-25 20:53 -12.56446 -40.06133 1883 ft 80 kts 98°
2026-04-25 20:53 -12.56517 -40.05568 1858 ft 80 kts 100°
2026-04-25 20:53 -12.56435 -40.04995 1824 ft 84 kts 79°
2026-04-25 20:53 -12.56234 -40.04438 1804 ft 84 kts 74°
2026-04-25 20:54 -12.55786 -40.04023 1751 ft 95 kts 29°
2026-04-25 20:54 -12.55129 -40.04167 1695 ft 108 kts 323°
2026-04-25 20:54 -12.54913 -40.04893 1640 ft 110 kts 259°
2026-04-25 20:54 -12.55154 -40.05653 1577 ft 111 kts 252°
2026-04-25 20:55 -12.55385 -40.06402 1529 ft 115 kts 251°
2026-04-25 20:55 -12.55645 -40.07214 1439 ft 121 kts 251°
2026-04-25 20:55 -12.55895 -40.08024 1353 ft 115 kts 251°
2026-04-25 20:55 -12.56132 -40.08813 1198 ft 114 kts 250°
2026-04-25 20:56 -12.56369 -40.09582 1193 ft 113 kts 252°
2026-04-25 20:56 -12.56585 -40.10334 1178 ft 107 kts 252°
2026-04-25 20:56 -12.56813 -40.11031 1179 ft 98 kts 251°
2026-04-25 20:56 -12.57019 -40.11700 1178 ft 99 kts 254°
2026-04-25 20:57 -12.57159 -40.12369 1185 ft 94 kts 278°
2026-04-25 20:57 -12.56913 -40.12964 1174 ft 91 kts 301°
2026-04-25 20:57 -12.56650 -40.13561 1181 ft 96 kts 303°
2026-04-25 20:57 -12.56342 -40.14201 1200 ft 104 kts 304°
2026-04-25 20:58 -12.55997 -40.14897 1202 ft 114 kts 301°
2026-04-25 20:58 -12.55628 -40.15634 1200 ft 120 kts 300°
2026-04-25 20:58 -12.55246 -40.16397 1199 ft 119 kts 301°
2026-04-25 20:58 -12.54871 -40.17135 1192 ft 116 kts 301°
2026-04-25 20:59 -12.54508 -40.17861 1191 ft 113 kts 301°
2026-04-25 20:59 -12.54136 -40.18607 1189 ft 120 kts 301°
2026-04-25 20:59 -12.53752 -40.19372 1190 ft 121 kts 301°
2026-04-25 20:59 -12.53382 -40.20118 1188 ft 116 kts 303°
2026-04-25 21:00 -12.52998 -40.20878 1193 ft 124 kts 302°
2026-04-25 21:00 -12.52871 -40.21133 1197 ft 124 kts 302°
2026-04-25 21:00 -12.51833 -40.23206 1177 ft 113 kts 302°
2026-04-25 21:01 -12.51602 -40.23673 1174 ft 110 kts 299°
2026-04-25 21:01 -12.51166 -40.24565 1191 ft 102 kts 298°
2026-04-25 21:01 -12.50959 -40.24989 1190 ft 98 kts 298°
2026-04-25 21:01 -12.50668 -40.25577 1119 ft 87 kts 299°
2026-04-25 21:02 -12.50411 -40.26093 1015 ft 76 kts 298°
2026-04-25 21:02 -12.50195 -40.26542 933 ft 63 kts 289°
2026-04-25 21:02 -12.50042 -40.26889 928 ft 46 kts 296°
2026-04-25 21:02 -12.49920 -40.27146 937 ft 35 kts 300°
2026-04-25 21:03 -12.49823 -40.27340 943 ft 27 kts 295°
2026-04-25 21:03 -12.49777 -40.27430 945 ft 0 kts 297°
2026-04-25 21:03 -12.49779 -40.27437 945 ft 1 kts 201°
2026-04-25 21:04 -12.49824 -40.27342 943 ft 27 kts 113°
2026-04-25 21:04 -12.49927 -40.27138 937 ft 36 kts 116°
2026-04-25 21:04 -12.50049 -40.26892 928 ft 32 kts 115°
2026-04-25 21:04 -12.50114 -40.26837 926 ft 7 kts 198°
2026-04-25 21:05 -12.50167 -40.26861 926 ft 7 kts 182°
2026-04-25 21:05 -12.50206 -40.26829 924 ft 7 kts 116°
2026-04-25 21:05 -12.50205 -40.26812 925 ft 0 kts 24°
2026-04-25 21:05 -12.50200 -40.26813 925 ft 2 kts 331°
2026-04-25 21:06 -12.50197 -40.26816 924 ft 0 kts 307°
2026-04-25 21:06 -12.50196 -40.26817 924 ft 0 kts 305°